KB8DIV Weather Reports


Display with metric or nautical units.
time (UTC)temp
F
wind
direction
speed
MPH
gust
MPH
rain 1hr
in
rain 24hr
in
rain mn
in
humidity
%
barometer
mb
20260508231022 56 250 7.0 12.0 0.03 0.04 0.04 87 1010.1
20260508230251 56 276 7.0 12.0 0.02 0.03 0.03 85 1009.9
20260508225749 56 300 7.0 11.0 0.01 0.02 0.02 84 1009.8
20260508225511 57 278 6.0 10.0 0.01 0.02 0.02 82 1009.8
20260508224748 57 304 5.0 9.0 0.01 0.02 0.02 82 1009.7
20260508224513 57 300 4.0 9.0 0.00 0.01 0.01 81 1009.7
20260508223749 58 284 5.0 9.0 0.00 0.01 0.01 80 1009.6
20260508223249 58 301 5.0 9.0 0.00 0.01 0.01 79 1009.5
20260508223234 58 305 4.0 7.0 0.00 0.01 0.01 77 1009.4
20260508222249 59 307 4.0 7.0 0.01 0.01 0.01 77 1009.4
20260508222016 59 319 3.0 6.0 0.01 0.01 0.01 75 1009.3
20260508221245 59 320 4.0 6.0 0.01 0.01 0.01 75 1009.2
20260508220744 59 308 4.0 6.0 0.01 0.01 0.01 75 1009.1
20260508220244 59 307 3.0 6.0 0.01 0.01 0.01 75 1009.1
20260508215744 58 316 3.0 4.0 0.01 0.01 0.01 77 1009.2
20260508215246 58 302 3.0 5.0 0.01 0.01 0.01 76 1009.2
20260508214746 58 281 4.0 7.0 0.01 0.01 0.01 75 1009.3
20260508214245 58 295 5.0 9.0 0.01 0.01 0.01 75 1009.3
20260508213746 58 282 6.0 11.0 0.01 0.01 0.01 74 1009.3
20260508213246 59 290 7.0 11.0 0.01 0.01 0.01 73 1009.3
20260508212743 59 271 8.0 13.0 0.01 0.01 0.01 73 1009.5
20260508212242 60 257 7.0 13.0 0.00 0.00 0.00 70 1009.6
20260508211742 61 272 8.0 14.0 0.00 0.00 0.00 72 1009.5
20260508211243 61 269 10.0 16.0 0.00 0.00 0.00 67 1009.5
20260508211004 61 242 12.0 19.0 0.00 0.00 0.00 65 1009.5
20260508210243 61 255 13.0 19.0 0.00 0.00 0.00 63 1009.6
20260508205742 62 260 13.0 21.0 0.00 0.00 0.00 63 1009.6
20260508205503 62 255 13.0 21.0 0.00 0.00 0.00 62 1009.5
20260508204743 62 254 12.0 24.0 0.00 0.00 0.00 63 1009.5
20260508204240 63 262 13.0 24.0 0.00 0.00 0.00 62 1009.7
20260508203742 63 257 14.0 21.0 0.00 0.00 0.00 61 1009.8
20260508203242 63 260 14.0 26.0 0.00 0.00 0.00 60 1009.7
20260508202741 63 282 15.0 26.0 0.00 0.00 0.00 60 1009.8
20260508202725 63 261 16.0 26.0 0.00 0.00 0.00 59 1009.8
20260508201739 63 265 16.0 26.0 0.00 0.00 0.00 58 1009.8
20260508201508 63 244 16.0 25.0 0.00 0.00 0.00 59 1009.9
20260508200739 64 254 16.0 24.0 0.00 0.00 0.00 58 1009.8
20260508200236 64 252 15.0 24.0 0.00 0.00 0.00 59 1009.8
20260508195737 64 256 14.0 24.0 0.00 0.00 0.00 58 1009.8
20260508195236 64 222 16.0 25.0 0.00 0.00 0.00 58 1009.9
20260508194958 64 274 17.0 25.0 0.00 0.00 0.00 57 1009.9
20260508194455 65 254 18.0 26.0 0.00 0.00 0.00 58 1009.8
20260508193735 65 269 17.0 26.0 0.00 0.00 0.00 57 1009.8
20260508193230 65 153 15.0 24.0 0.00 0.00 0.00 57 1009.8
20260508192942 65 240 14.0 22.0 0.00 0.00 0.00 58 1009.9
20260508192218 65 231 15.0 22.0 0.00 0.00 0.00 57 1009.9
20260508191712 65 231 16.0 24.0 0.00 0.00 0.00 57 1010.0
20260508191205 64 239 17.0 24.0 0.00 0.00 0.00 56 1010.1
20260508190659 64 245 17.0 25.0 0.00 0.00 0.00 57 1010.2
20260508190424 65 269 13.0 25.0 0.00 0.00 0.00 55 1010.2
20260508185647 65 251 10.0 18.0 0.00 0.00 0.00 59 1010.3
20260508185141 65 256 9.0 19.0 0.00 0.00 0.00 59 1010.3
20260508184635 65 269 10.0 19.0 0.00 0.00 0.00 58 1010.3
20260508184130 65 252 12.0 20.0 0.00 0.00 0.00 60 1010.5
20260508183848 64 222 14.0 20.0 0.00 0.00 0.00 58 1010.4
20260508183117 65 226 11.0 20.0 0.00 0.00 0.00 60 1010.4
20260508182838 65 224 8.0 22.0 0.00 0.00 0.00 59 1010.4
20260508182548 65 167 7.0 22.0 0.00 0.00 0.00 58 1010.5
20260508182041 65 277 7.0 20.0 0.00 0.00 0.00 57 1010.4
20260508181319 66 217 7.0 20.0 0.00 0.00 0.00 59 1010.5
20260508180547 66 193 7.0 17.0 0.00 0.00 0.00 59 1010.5
20260508180042 66 255 10.0 22.0 0.00 0.00 0.00 58 1010.5
20260508175535 65 242 14.0 22.0 0.00 0.00 0.00 56 1010.6
20260508175029 65 236 15.0 25.0 0.00 0.00 0.00 60 1010.7
20260508174524 65 213 12.0 22.0 0.00 0.00 0.00 58 1010.9
20260508174017 64 257 14.0 22.0 0.00 0.00 0.00 59 1011.1
20260508173512 64 255 13.0 22.0 0.00 0.00 0.00 57 1011.2
20260508173005 65 249 10.0 22.0 0.00 0.00 0.00 59 1011.2
20260508172459 65 215 11.0 22.0 0.00 0.00 0.00 60 1011.4
20260508171953 64 257 10.0 22.0 0.00 0.00 0.00 59 1011.5
20260508171447 64 207 9.0 19.0 0.00 0.00 0.00 58 1011.6
20260508170941 64 241 11.0 19.0 0.00 0.00 0.00 60 1011.6
20260508170435 64 275 11.0 21.0 0.00 0.00 0.00 60 1011.7
20260508165929 64 226 12.0 21.0 0.00 0.00 0.00 63 1011.7
20260508165643 63 255 11.0 21.0 0.00 0.00 0.00 58 1011.8
20260508165139 64 246 10.0 18.0 0.00 0.00 0.00 59 1012.0
20260508164639 63 164 10.0 18.0 0.00 0.00 0.00 62 1012.0
20260508164128 63 256 10.0 18.0 0.00 0.00 0.00 59 1012.1
20260508163359 63 292 10.0 17.0 0.00 0.00 0.00 60 1012.3
20260508162853 62 282 10.0 17.0 0.00 0.00 0.00 62 1012.4
20260508162347 62 259 12.0 17.0 0.00 0.00 0.00 60 1012.5
20260508161841 62 264 12.0 18.0 0.00 0.00 0.00 58 1012.6
20260508161334 62 247 10.0 18.0 0.00 0.00 0.00 61 1012.7
20260508160829 62 265 10.0 17.0 0.00 0.00 0.00 61 1012.7
20260508160323 62 255 9.0 17.0 0.00 0.00 0.00 62 1012.7
20260508155817 62 262 8.0 13.0 0.00 0.00 0.00 63 1012.8
20260508155311 61 269 10.0 21.0 0.00 0.00 0.00 62 1012.8
20260508154805 60 269 11.0 21.0 0.00 0.00 0.00 60 1012.8
20260508154259 61 231 10.0 17.0 0.00 0.00 0.00 61 1012.9
20260508153753 61 271 10.0 17.0 0.00 0.00 0.00 64 1012.8
20260508153247 60 255 11.0 18.0 0.00 0.00 0.00 64 1012.8
20260508152741 60 270 11.0 18.0 0.00 0.00 0.00 63 1012.8
20260508152235 60 281 9.0 16.0 0.00 0.00 0.00 65 1012.9
20260508151729 60 264 9.0 16.0 0.00 0.00 0.00 64 1012.7
20260508151223 59 266 9.0 15.0 0.00 0.00 0.00 65 1012.9
20260508150717 59 259 10.0 15.0 0.00 0.00 0.00 62 1012.9
20260508150211 58 257 11.0 17.0 0.00 0.00 0.00 66 1012.9
20260508145705 58 276 12.0 18.0 0.00 0.00 0.00 64 1013.0
20260508145205 58 257 11.0 19.0 0.00 0.00 0.00 65 1013.2
20260508144705 57 268 10.0 19.0 0.00 0.00 0.00 65 1013.2
20260508144425 57 231 9.0 15.0 0.00 0.00 0.00 65 1013.2
20260508143706 56 283 11.0 15.0 0.00 0.00 0.00 67 1013.2
20260508143425 56 265 11.0 17.0 0.00 0.00 0.00 66 1013.2
20260508142705 55 262 12.0 17.0 0.00 0.00 0.00 68 1013.2
20260508142203 55 272 12.0 17.0 0.00 0.00 0.00 66 1013.2
20260508141706 55 238 10.0 17.0 0.00 0.00 0.00 66 1013.2
20260508141205 54 273 10.0 15.0 0.00 0.00 0.00 69 1013.3
20260508140705 53 286 8.0 15.0 0.00 0.00 0.00 68 1013.3
20260508140205 53 256 7.0 14.0 0.00 0.00 0.00 69 1013.3
20260508135705 53 276 7.0 12.0 0.00 0.00 0.00 69 1013.3
20260508135205 52 266 6.0 12.0 0.00 0.00 0.00 70 1013.3
20260508134704 52 248 6.0 10.0 0.00 0.00 0.00 71 1013.3
20260508134204 52 241 5.0 10.0 0.00 0.00 0.00 72 1013.5
20260508133705 51 179 6.0 9.0 0.00 0.00 0.00 73 1013.5
20260508133159 51 255 6.0 10.0 0.00 0.00 0.00 74 1013.5
20260508132659 51 259 5.0 10.0 0.00 0.00 0.00 72 1013.5
20260508132159 51 219 5.0 9.0 0.00 0.00 0.00 74 1013.5
20260508131922 51 266 4.0 8.0 0.00 0.00 0.00 74 1013.5
20260508131158 50 250 4.0 8.0 0.00 0.00 0.00 75 1013.4
20260508130700 50 249 5.0 8.0 0.00 0.00 0.00 75 1013.3
20260508130159 50 251 5.0 8.0 0.00 0.00 0.00 75 1013.4
20260508125658 50 258 5.0 8.0 0.00 0.00 0.00 75 1013.6
20260508125200 50 259 5.0 8.0 0.00 0.00 0.00 74 1013.6
20260508124657 50 257 5.0 8.0 0.00 0.00 0.00 75 1013.6
20260508124159 49 238 5.0 8.0 0.00 0.00 0.00 76 1013.6
20260508123658 49 204 6.0 8.0 0.00 0.00 0.00 76 1013.5
20260508123158 49 262 6.0 9.0 0.00 0.00 0.00 75 1013.6
20260508122659 49 263 6.0 10.0 0.00 0.00 0.00 74 1013.5
20260508122153 49 258 6.0 11.0 0.00 0.00 0.00 74 1013.5
20260508121914 49 229 5.0 11.0 0.00 0.00 0.00 74 1013.5
20260508121155 49 244 5.0 7.0 0.00 0.00 0.00 75 1013.5
20260508120654 49 261 5.0 8.0 0.00 0.00 0.00 76 1013.5
20260508120636 49 277 5.0 10.0 0.00 0.00 0.00 75 1013.4
20260508120136 49 262 5.0 10.0 0.00 0.00 0.00 75 1013.4
20260508115155 49 272 6.0 11.0 0.00 0.00 0.00 75 1013.3
20260508114655 49 231 8.0 11.0 0.00 0.00 0.00 74 1013.2
20260508114156 49 245 7.0 10.0 0.00 0.00 0.00 74 1013.2
20260508113650 49 241 7.0 11.0 0.00 0.00 0.00 73 1013.2
20260508113412 50 254 7.0 11.0 0.00 0.00 0.00 72 1013.3
20260508112649 49 257 7.0 11.0 0.00 0.00 0.00 72 1013.2
20260508112149 49 256 7.0 10.0 0.00 0.00 0.00 72 1013.1
20260508111649 49 252 7.0 12.0 0.00 0.00 0.00 72 1013.0
20260508111150 49 257 7.0 12.0 0.00 0.00 0.00 73 1013.0
20260508110650 49 255 7.0 10.0 0.00 0.00 0.00 73 1012.9
20260508110414 49 246 6.0 10.0 0.00 0.00 0.00 74 1012.9
20260508105651 48 243 6.0 9.0 0.00 0.00 0.00 75 1012.8
20260508105144 48 258 5.0 9.0 0.00 0.00 0.00 76 1012.8
20260508104638 47 210 5.0 7.0 0.00 0.00 0.00 76 1012.7
20260508104617 47 240 4.0 7.0 0.00 0.00 0.00 77 1012.8
20260508103633 47 251 3.0 5.0 0.00 0.00 0.00 77 1012.7
20260508103134 47 257 3.0 5.0 0.00 0.00 0.00 78 1012.6
20260508102633 47 232 2.0 5.0 0.00 0.00 0.00 77 1012.5
20260508102135 47 233 2.0 5.0 0.00 0.00 0.00 77 1012.6
20260508101632 47 235 2.0 5.0 0.00 0.00 0.00 76 1012.6
20260508101129 47 257 3.0 5.0 0.00 0.00 0.00 76 1012.6
20260508100850 48 221 4.0 7.0 0.00 0.00 0.00 74 1012.6
20260508100129 48 219 4.0 7.0 0.00 0.00 0.00 74 1012.6
20260508095630 48 235 4.0 8.0 0.00 0.00 0.00 73 1012.6
20260508095131 48 264 4.0 8.0 0.00 0.00 0.00 73 1012.5
20260508094630 49 252 5.0 8.0 0.00 0.00 0.00 72 1012.5
20260508094129 49 247 5.0 9.0 0.00 0.00 0.00 72 1012.6
20260508093629 49 245 6.0 9.0 0.00 0.00 0.00 71 1012.6
20260508093129 49 254 6.0 9.0 0.00 0.00 0.00 70 1012.6
20260508092629 49 270 7.0 10.0 0.00 0.00 0.00 70 1012.6
20260508092129 49 262 7.0 10.0 0.00 0.00 0.00 70 1012.6
20260508091629 49 237 6.0 10.0 0.00 0.00 0.00 71 1012.6
20260508091129 49 247 6.0 9.0 0.00 0.00 0.00 72 1012.7
20260508090853 48 245 6.0 10.0 0.00 0.00 0.00 72 1012.8
20260508090127 48 241 5.0 10.0 0.00 0.00 0.00 74 1012.7
20260508085627 47 257 4.0 8.0 0.00 0.00 0.00 75 1012.8
20260508085351 47 256 3.0 7.0 0.00 0.00 0.00 75 1012.7
20260508084629 47 259 3.0 6.0 0.00 0.00 0.00 75 1012.7
20260508084128 47 208 3.0 6.0 0.00 0.00 0.00 75 1012.7
20260508083825 47 232 4.0 8.0 0.00 0.00 0.00 75 1012.8
20260508083717 47 250 4.0 7.0 0.00 0.00 0.00 75 1012.8
20260508082850 47 256 5.0 9.0 0.00 0.00 0.00 74 1012.8
20260508082121 47 236 5.0 9.0 0.00 0.00 0.00 74 1012.7
20260508081621 47 259 5.0 9.0 0.00 0.00 0.00 73 1012.8
20260508081123 48 240 7.0 11.0 0.00 0.00 0.00 72 1012.9
20260508080621 48 235 7.0 11.0 0.00 0.00 0.00 72 1012.9
20260508080121 48 250 6.0 9.0 0.00 0.00 0.00 72 1012.9
20260508075616 48 250 6.0 9.0 0.00 0.00 0.00 73 1012.9
20260508075318 47 236 6.0 9.0 0.00 0.00 0.00 73 1012.8
20260508075200 48 247 6.0 9.0 0.00 0.00 0.00 73 1012.9
20260508074058 47 247 6.0 9.0 0.00 0.00 0.00 73 1012.9
20260508073815 47 263 6.0 9.0 0.00 0.00 0.00 74 1012.9
20260508073046 47 240 5.0 9.0 0.00 0.00 0.00 74 1012.9
20260508072540 47 246 5.0 9.0 0.00 0.00 0.00 75 1012.8
20260508072034 47 259 5.0 9.0 0.00 0.00 0.00 75 1012.8
20260508071528 47 261 4.0 8.0 0.00 0.00 0.00 76 1012.9
20260508071022 47 264 3.0 8.0 0.00 0.00 0.00 76 1012.9
20260508071000 47 214 3.0 6.0 0.00 0.00 0.00 76 1013.0
20260508070010 47 246 3.0 6.0 0.00 0.00 0.00 76 1013.0
20260508065504 47 246 3.0 8.0 0.00 0.00 0.00 75 1013.1
20260508064958 47 235 3.0 8.0 0.00 0.00 0.00 75 1013.0
20260508064452 47 206 3.0 7.0 0.00 0.00 0.00 75 1013.2
20260508063946 47 243 2.0 7.0 0.00 0.00 0.00 75 1013.2
20260508063924 48 236 3.0 7.0 0.00 0.00 0.00 74 1013.2
20260508062934 48 256 4.0 8.0 0.00 0.00 0.00 73 1013.3
20260508062428 48 274 5.0 8.0 0.00 0.00 0.00 73 1013.2
20260508061922 48 243 5.0 9.0 0.00 0.00 0.00 72 1013.3
20260508061416 48 252 5.0 9.0 0.00 0.00 0.00 72 1013.3
20260508061141 49 236 5.0 9.0 0.00 0.00 0.00 72 1013.3
20260508060404 49 223 5.0 10.0 0.00 0.00 0.00 72 1013.3
20260508055858 49 240 6.0 10.0 0.00 0.00 0.00 72 1013.4
20260508055847 49 254 7.0 11.0 0.00 0.00 0.00 71 1013.4
20260508054846 49 250 7.0 11.0 0.00 0.00 0.00 71 1013.4
20260508054340 49 248 7.0 11.0 0.00 0.00 0.00 71 1013.3
20260508053834 49 243 7.0 11.0 0.00 0.00 0.00 71 1013.4
20260508053328 49 249 7.0 10.0 0.00 0.00 0.00 71 1013.3
20260508052822 49 249 8.0 11.0 0.00 0.00 0.00 71 1013.3
20260508052316 50 250 8.0 12.0 0.00 0.00 0.00 71 1013.4
20260508051810 50 259 8.0 14.0 0.00 0.00 0.00 71 1013.4
20260508051526 49 245 7.0 14.0 0.00 0.00 0.00 71 1013.3
20260508050758 49 240 6.0 10.0 0.00 0.00 0.00 72 1013.3
20260508050516 49 255 6.0 10.0 0.00 0.00 0.00 73 1013.3
20260508050233 49 250 6.0 10.0 0.00 0.00 0.00 72 1013.3
20260508045240 49 240 5.0 10.0 0.00 0.00 0.00 73 1013.3
20260508044734 49 259 6.0 10.0 0.00 0.00 0.00 73 1013.3
20260508044228 49 252 5.0 10.0 0.00 0.00 0.00 74 1013.3
20260508043946 49 219 4.0 10.0 0.00 0.00 0.00 75 1013.3
20260508043446 49 229 2.0 6.0 0.00 0.00 0.00 75 1013.2
20260508042710 49 226 2.0 6.0 0.00 0.00 0.00 76 1013.2
20260508042205 49 257 2.0 6.0 0.00 0.00 0.00 76 1013.2
20260508041658 49 270 2.0 6.0 0.00 0.00 0.00 76 1013.2
20260508041155 49 206 2.0 5.0 0.00 0.00 0.00 76 1013.2
20260508040914 49 257 2.0 8.0 0.00 0.00 0.00 75 1013.2
20260508040155 49 250 2.0 8.0 0.00 0.00 0.00 75 1013.2
20260508035651 49 231 2.0 6.0 0.00 0.00 0.00 74 1013.3
20260508035153 49 242 2.0 6.0 0.00 0.00 0.00 74 1013.3
20260508034652 49 238 2.0 6.0 0.00 0.00 0.00 74 1013.3
20260508034152 49 199 2.0 6.0 0.00 0.00 0.00 77 1013.2
20260508033911 49 248 2.0 6.0 0.00 0.00 0.00 76 1013.1
20260508033149 49 226 1.0 5.0 0.00 0.00 0.00 76 1013.1
20260508032651 49 246 0.0 3.0 0.00 0.00 0.00 77 1013.0
20260508032150 49 252 0.0 3.0 0.00 0.00 0.00 77 1013.0
20260508031647 49 240 0.0 3.0 0.00 0.00 0.00 78 1013.2
20260508031147 49 208 0.0 3.0 0.00 0.00 0.00 78 1013.3
20260508030648 49 269 0.0 3.0 0.00 0.00 0.00 79 1013.3
20260508030146 49 203 0.0 2.0 0.00 0.00 0.00 78 1013.3
20260508025643 49 237 1.0 3.0 0.00 0.00 0.00 79 1013.4
20260508025141 49 235 1.0 3.0 0.00 0.00 0.00 78 1013.5
20260508024641 49 218 1.0 3.0 0.00 0.00 0.00 78 1013.5
20260508024142 49 258 0.0 2.0 0.00 0.00 0.00 78 1013.4
20260508023636 49 229 0.0 2.0 0.00 0.00 0.00 77 1013.4
20260508023130 49 250 0.0 3.0 0.00 0.00 0.00 77 1013.5
20260508022630 50 250 0.0 3.0 0.00 0.00 0.00 77 1013.5
20260508022359 50 260 0.0 2.0 0.00 0.00 0.00 76 1013.5
20260508021625 50 191 0.0 3.0 0.00 0.00 0.00 76 1013.4
20260508021125 50 231 2.0 5.0 0.00 0.00 0.00 76 1013.4
20260508021107 50 260 3.0 5.0 0.00 0.00 0.00 76 1013.5
20260508020124 50 244 2.0 5.0 0.00 0.00 0.00 75 1013.4
20260508015623 50 221 1.0 5.0 0.00 0.00 0.00 74 1013.4
20260508015124 50 248 1.0 3.0 0.00 0.00 0.00 75 1013.2
20260508014844 51 248 1.0 3.0 0.00 0.00 0.00 74 1013.2
20260508014344 51 248 1.0 4.0 0.00 0.00 0.00 73 1013.2
20260508013620 51 246 3.0 6.0 0.00 0.00 0.00 73 1013.3
20260508013119 51 289 3.0 6.0 0.00 0.00 0.00 72 1013.3
20260508012619 51 273 2.0 4.0 0.00 0.00 0.00 72 1013.2
20260508012343 51 264 2.0 4.0 0.00 0.00 0.00 72 1013.2
20260508011617 51 269 3.0 8.0 0.00 0.00 0.00 72 1013.1
20260508011117 51 275 3.0 8.0 0.00 0.00 0.00 70 1013.1
20260508010841 51 276 4.0 8.0 0.00 0.00 0.00 69 1013.2
20260508010118 51 291 4.0 8.0 0.00 0.00 0.00 69 1013.5
20260508005616 52 290 3.0 6.0 0.00 0.00 0.00 67 1013.3
20260508005112 52 278 4.0 8.0 0.00 0.00 0.00 69 1013.3
20260508004610 52 300 4.0 8.0 0.00 0.00 0.00 68 1013.5
20260508004112 52 288 3.0 6.0 0.00 0.00 0.00 65 1013.4
20260508003612 52 272 4.0 7.0 0.00 0.00 0.00 65 1013.4
20260508003113 52 297 4.0 7.0 0.00 0.00 0.00 64 1013.3
20260508002612 53 288 5.0 9.0 0.00 0.00 0.00 64 1013.3
20260508002112 53 290 8.0 15.0 0.00 0.00 0.00 62 1013.2
20260508001829 53 299 8.0 15.0 0.00 0.00 0.00 63 1013.4
20260508001111 53 257 7.0 15.0 0.00 0.00 0.00 61 1013.5
20260508001054 53 288 8.0 14.0 0.00 0.00 0.00 62 1013.4
20260508000108 53 269 8.0 14.0 0.00 0.00 0.00 60 1013.4
20260507235826 53 277 9.0 18.0 0.00 0.00 0.00 60 1013.5
20260507235107 54 295 9.0 18.0 0.00 0.00 0.00 59 1013.5
20260507234607 54 293 13.0 28.0 0.00 0.00 0.00 60 1013.6
20260507234553 54 302 13.0 28.0 0.00 0.00 0.00 56 1013.6
20260507233606 55 297 7.0 25.0 0.00 0.00 0.00 55 1013.4
20260507233326 56 291 4.0 8.0 0.00 0.00 0.00 54 1013.3
20260507232612 56 281 5.0 7.0 0.00 0.00 0.00 52 1013.2
20260507232108 56 294 6.0 12.0 0.00 0.00 0.00 52 1013.1
20260507231605 56 266 6.0 12.0 0.00 0.00 0.00 50 1013.2